User: anonymous   Login
Location: Unspecified
(0.0000°N, 0.0000°E)
Time: 21:50:34
(UTC+00:00)
Language:

STARLINK-1262 - Orbit

View from above orbital plane
View from above orbital plane
View from above satellite
View from above satellite

Ground track
Ground track

The orbit is defined by the following mean orbital elements,

1 45366U          26145.47102735 +.00000000 +00000-0 +10022-2 0 00001
2 45366  53.1540 168.3240 0003911  26.9342 333.1862 15.32690663    05
Epoch (UTC): 25 May 2026 11:18:16
Eccentricity: 0.0003911
inclination: 53.1540°
perigee height: 465 km
apogee height: 470 km
right ascension of ascending node: 168.3240°
argument of perigee: 26.9342°
revolutions per day: 15.32690663
mean anomaly at epoch: 333.1862°

The dashed part of the orbit path shows where the satellite is in the earth's shadow,  

DLR